Weather History for Perry, IA

Change the Weather History Date:

Monday, November 15, 2010

  Actual Average Record
Temperature  
Mean Temperature 40 °F -  
Max Temperature 51 °F 46 °F 74 °F (1990)
Min Temperature 30 °F 26 °F 5 °F (1959)
Degree Days  
Heating Degree Days 24    
Moisture  
Dew Point 35 °F    
Average Humidity 86    
Maximum Humidity 100    
Minimum Humidity 58    
Precipitation  
Precipitation 0.00 in - - ()
Sea Level Pressure  
Sea Level Pressure 29.75 in    
Wind  
Wind Speed 5 mph (SW)    
Max Wind Speed 9 mph    
Max Gust Speed -    
Averages and records for this station are not official NWS values.
T = Trace of Precipitation, MM = Missing Value Source: NWS Daily Summary

Daily Weather History Graph

Daily Weather History Graph

Search for Another Location

Airport:

Trip Planner

Search our weather history database for the weather conditions in past years. The results will help you decide how hot, cold, wet, or windy it might be!

Date:

Astronomy

Nov. 15, 2010 Rise Set
Actual Time 7:06 AM CST 4:55 PM CST
Civil Twilight 6:36 AM CST 5:25 PM CST
Nautical Twilight 6:02 AM CST 5:59 PM CST
Astronomical Twilight 5:29 AM CST 6:32 PM CST
Moon 1:43 PM CST (11/15) 1:07 AM CST (11/15)
Length of Visible Light 10h 49m
Length of Day
9h 49m
Waxing Gibbous, 69% of the Moon is Illuminated
Nov 15
Waxing Gibbous
Nov 21
Full
Nov 28
Last Quarter
Dec 5
New
Dec 13
First Quarter

Hourly Weather History & Observations

Time (CST) Temp. Windchill Dew Point Humidity Pressure Visibility Wind Dir Wind Speed Gust Speed Precip Events Conditions
12:15 AM 32.0 °F 25.6 °F 32.0 °F 100% 29.77 in - SSE 6.9 mph - N/A   Unknown
12:35 AM 32.0 °F 25.6 °F 32.0 °F 100% 29.76 in - SSE 6.9 mph - N/A   Unknown
12:55 AM 32.0 °F 24.8 °F 32.0 °F 100% 29.75 in - South 8.1 mph - N/A   Unknown
1:15 AM 32.0 °F 24.2 °F 32.0 °F 100% 29.75 in - South 9.2 mph - N/A   Unknown
1:35 AM 32.0 °F 25.6 °F 32.0 °F 100% 29.74 in - South 6.9 mph - N/A   Unknown
1:55 AM 32.0 °F 24.8 °F 32.0 °F 100% 29.74 in - South 8.1 mph - N/A   Unknown
2:15 AM 32.0 °F 24.8 °F 32.0 °F 100% 29.74 in - South 8.1 mph - N/A   Unknown
2:35 AM 32.0 °F 26.4 °F 32.0 °F 100% 29.74 in - South 5.8 mph - N/A   Unknown
2:55 AM 32.0 °F - 32.0 °F 100% 29.73 in - Calm Calm - N/A   Unknown
3:15 AM 32.0 °F 26.4 °F 30.2 °F 93% 29.73 in - South 5.8 mph - N/A   Unknown
3:35 AM 32.0 °F - 30.2 °F 93% 29.73 in - Calm Calm - N/A   Unknown
3:55 AM 32.0 °F 28.7 °F 30.2 °F 93% 29.73 in - South 3.5 mph - N/A   Unknown
4:15 AM 32.0 °F 28.7 °F 30.2 °F 93% 29.72 in - SSE 3.5 mph - N/A   Unknown
4:35 AM 32.0 °F - 30.2 °F 93% 29.72 in - Calm Calm - N/A   Unknown
4:55 AM 30.2 °F - 30.2 °F 100% 29.72 in - Calm Calm - N/A   Unknown
5:15 AM 30.2 °F - 30.2 °F 100% 29.72 in - Calm Calm - N/A   Unknown
5:35 AM 30.2 °F - 30.2 °F 100% 29.72 in - Calm Calm - N/A   Unknown
5:55 AM 30.2 °F - 30.2 °F 100% 29.72 in - Calm Calm - N/A   Unknown
6:15 AM 30.2 °F - 30.2 °F 100% 29.72 in - Calm Calm - N/A   Unknown
6:35 AM 30.2 °F 26.7 °F 30.2 °F 100% 29.72 in - SSE 3.5 mph - N/A   Unknown
6:55 AM 30.2 °F 26.7 °F 30.2 °F 100% 29.73 in - South 3.5 mph - N/A   Unknown
7:55 AM 32.0 °F 27.5 °F 32.0 °F 100% 29.74 in - SSE 4.6 mph - N/A   Unknown
8:15 AM 32.0 °F 28.7 °F 32.0 °F 100% 29.74 in - SSE 3.5 mph - N/A   Unknown
8:35 AM 33.8 °F 30.8 °F 32.0 °F 93% 29.74 in - SSE 3.5 mph - N/A   Unknown
8:55 AM 35.6 °F 30.7 °F 33.8 °F 93% 29.74 in - SSE 5.8 mph - N/A   Unknown
9:15 AM 37.4 °F 33.8 °F 35.6 °F 93% 29.75 in - South 4.6 mph - N/A   Unknown
9:35 AM 37.4 °F 33.8 °F 35.6 °F 93% 29.75 in - WSW 4.6 mph - N/A   Unknown
9:55 AM 39.2 °F 37.0 °F 35.6 °F 87% 29.76 in - WSW 3.5 mph - N/A   Unknown
10:15 AM 41.0 °F - 35.6 °F 81% 29.76 in - Calm Calm - N/A   Unknown
10:35 AM 41.0 °F 38.0 °F 37.4 °F 87% 29.76 in - WSW 4.6 mph - N/A   Unknown
10:55 AM 42.8 °F 41.1 °F 37.4 °F 81% 29.76 in - SSW 3.5 mph - N/A   Clear
11:15 AM 44.6 °F - 37.4 °F 76% 29.76 in - Calm Calm - N/A   Scattered Clouds
11:35 AM 44.6 °F - 37.4 °F 76% 29.76 in - Calm Calm - N/A   Scattered Clouds
11:55 AM 46.4 °F 44.3 °F 39.2 °F 76% 29.76 in - West 4.6 mph - N/A   Scattered Clouds
12:15 PM 46.4 °F - 39.2 °F 76% 29.75 in - Calm Calm - N/A   Clear
12:35 PM 48.2 °F - 39.2 °F 71% 29.75 in - SW 5.8 mph - N/A   Clear
12:55 PM 50.0 °F - 37.4 °F 62% 29.75 in - WSW 5.8 mph - N/A   Clear
1:15 PM 50.0 °F - 39.2 °F 66% 29.75 in - WSW 4.6 mph - N/A   Clear
1:35 PM 50.0 °F - 37.4 °F 62% 29.74 in - SW 4.6 mph - N/A   Clear
1:55 PM 50.0 °F - 39.2 °F 66% 29.74 in - WNW 3.5 mph - N/A   Clear
2:15 PM 50.0 °F - 39.2 °F 66% 29.74 in - Calm Calm - N/A   Clear
2:35 PM 50.0 °F - 37.4 °F 62% 29.74 in - SW 5.8 mph - N/A   Clear
2:55 PM 50.0 °F - 37.4 °F 62% 29.74 in - WSW 3.5 mph - N/A   Clear
3:15 PM 51.8 °F - 37.4 °F 58% 29.75 in - Calm Calm - N/A   Clear
3:35 PM 50.0 °F - 37.4 °F 62% 29.75 in - WNW 3.5 mph - N/A   Clear
3:55 PM 50.0 °F - 39.2 °F 66% 29.76 in - West 4.6 mph - N/A   Clear
4:15 PM 50.0 °F - 41.0 °F 71% 29.76 in - West 5.8 mph - N/A   Clear
4:35 PM 46.4 °F 45.2 °F 41.0 °F 81% 29.76 in - WNW 3.5 mph - N/A   Clear
4:55 PM 44.6 °F 42.2 °F 39.2 °F 81% 29.77 in - WNW 4.6 mph - N/A   Clear
5:15 PM 44.6 °F 42.2 °F 37.4 °F 76% 29.77 in - WNW 4.6 mph - N/A   Clear
5:35 PM 42.8 °F 38.6 °F 37.4 °F 81% 29.77 in - WNW 6.9 mph - N/A   Unknown
5:55 PM 42.8 °F 40.1 °F 37.4 °F 81% 29.78 in - WNW 4.6 mph - N/A   Clear
6:15 PM 41.0 °F 37.1 °F 35.6 °F 81% 29.78 in - WNW 5.8 mph - N/A   Unknown
6:35 PM 41.0 °F 37.1 °F 35.6 °F 81% 29.78 in - WNW 5.8 mph - N/A   Unknown
6:55 PM 41.0 °F 37.1 °F 35.6 °F 81% 29.78 in - WNW 5.8 mph - N/A   Unknown
7:15 PM 37.4 °F 32.1 °F 35.6 °F 93% 29.78 in - West 6.9 mph - N/A   Unknown
7:35 PM 35.6 °F 30.7 °F 35.6 °F 100% 29.79 in - West 5.8 mph - N/A   Unknown
7:55 PM 35.6 °F 31.7 °F 35.6 °F 100% 29.78 in - West 4.6 mph - N/A   Unknown
8:15 PM 35.6 °F - 33.8 °F 93% 29.78 in - Calm Calm - N/A   Unknown
8:35 PM 37.4 °F - 35.6 °F 93% 29.78 in - Calm Calm - N/A   Unknown
8:55 PM 35.6 °F - 33.8 °F 93% 29.78 in - Calm Calm - N/A   Unknown
9:15 PM 33.8 °F - 33.8 °F 100% 29.78 in - Calm Calm - N/A   Unknown
9:35 PM 33.8 °F 27.7 °F 33.8 °F 100% 29.78 in - South 6.9 mph - N/A   Unknown
9:55 PM 33.8 °F - 33.8 °F 100% 29.78 in - Calm Calm - N/A   Unknown
10:15 PM 35.6 °F 32.8 °F 33.8 °F 93% 29.78 in - South 3.5 mph - N/A   Mostly Cloudy
10:35 PM 35.6 °F 31.7 °F 35.6 °F 100% 29.78 in - South 4.6 mph - N/A   Overcast
10:55 PM 35.6 °F - 35.6 °F 100% 29.77 in - Calm Calm - N/A   Overcast
11:15 PM 35.6 °F - 35.6 °F 100% 29.78 in - Calm Calm - N/A   Unknown
11:35 PM 37.4 °F - 35.6 °F 93% 29.77 in - Calm Calm - N/A   Unknown
11:55 PM 37.4 °F 34.9 °F 35.6 °F 93% 29.77 in - West 3.5 mph - N/A   Unknown